パンスターズ彗星

C/2017 S3 ( PanSTARRS )

English version
Home page
Updated on January 8, 2018

---------------------------------------------------------------------

・ プロフィール

発見日 2017年9月23日
発見光度 21.5等
発見者 Pan-STARRS 1 telescope (Haleakala)

・ 写真集

・ 軌道要素

Epoch 2018 Aug. 30.0 TT = JDT 2458360.5
T 2018 Aug. 15.92316 TT                                 MPCW
q   0.2084505            (2000.0)            P               Q
z  -0.0004615      Peri.  255.89098     +0.21711335     -0.96398820
 +/-0.0000239      Node   171.05329     +0.20815603     +0.19944097
e   1.0000962      Incl.   99.03628     -0.95369432     -0.17592625
From 50 observations 2017 Aug. 17-Nov. 18, mean residual 0".4.

・ 星図

・ 光度変化

        m1 = 10.0 + 5 logΔ + 10.0 log r

---------------------------------------------------------------------

軌道要素はM.P.E.C. 2017-X08に掲載されたものです。
星図はステラナビゲータ Ver.10 (アストロアーツ) で作成したものです。
光度グラフはComet for Windowsで作成したものです。

---------------------------------------------------------------------

Copyright(C) Seiichi Yoshida (comet@aerith.net). All rights reserved.